Marrakech, Morocco

11:00 PM WET on February 13, 2016 (GMT +0000)
Menara

Weather History for GMMX - April, 2014

Change the Weather History Date:

Friday, April 25, 2014

  Actual Average Record
Temperature  
Mean Temperature 70 °F -  
Max Temperature 84 °F 80 °F 98 °F (2008)
Min Temperature 55 °F 56 °F 51 °F (2006)
Cooling Degree Days 4    
Growing Degree Days 20 (Base 50)    
Moisture  
Dew Point 50 °F    
Average Humidity 54    
Maximum Humidity 88    
Minimum Humidity 12    
Precipitation  
Precipitation 0.00 in 0.03 in - ()
Sea Level Pressure  
Sea Level Pressure 30.14 in    
Wind  
Wind Speed 8 mph ()    
Max Wind Speed 14 mph    
Max Gust Speed -    
Visibility 6.1 miles    
Events      
Averages and records for this station are not official NWS values.
T = Trace of Precipitation, MM = Missing Value Source: Averaged Metar Reports

Daily Weather History Graph

Daily Weather History Graph

Search for Another Location

Airport or City:

Trip Planner

Search our weather history database for the weather conditions in past years. The results will help you decide how hot, cold, wet, or windy it might be!

Date:

Astronomy

Apr. 25, 2014 Rise Set
Actual Time 6:52 AM WEST 8:07 PM WEST
Civil Twilight 6:27 AM WEST 8:33 PM WEST
Nautical Twilight 5:57 AM WEST 9:03 PM WEST
Astronomical Twilight 5:25 AM WEST 9:35 PM WEST
Moon 4:16 AM WEST (4/25) 4:29 PM WEST (4/25)
Length of Visible Light 14h 05m
Length of Day
13h 14m
Waning Crescent, 17% of the Moon is Illuminated
Apr 25
Waning Crescent
Apr 29
New
May 7
First Quarter
May 14
Full
May 21
Last Quarter

Hourly Weather History & Observations

Time (WEST) Temp. Heat Index Dew Point Humidity Pressure Visibility Wind Dir Wind Speed Gust Speed Precip Events Conditions
12:00 AM 62.6 °F - 53.6 °F 72% 30.24 in - NE 11.5 mph - N/A   Clear
12:30 AM 62.6 °F - 53.6 °F 72% 30.24 in - NE 10.4 mph - N/A   Clear
1:00 AM 61 °F - 54 °F 71% 30.21 in 6 mi NNE 9.2 mph - -  
1:00 AM 60.8 °F - 53.6 °F 77% 30.21 in - NNE 9.2 mph - N/A   Clear
1:30 AM 60.8 °F - 53.6 °F 77% 30.21 in - NE 11.5 mph - N/A   Clear
2:00 AM 60.8 °F - 53.6 °F 77% 30.21 in - NE 9.2 mph - N/A   Clear
2:30 AM 59.0 °F - 51.8 °F 77% 30.21 in - ENE 10.4 mph - N/A   Clear
3:00 AM 59.0 °F - 51.8 °F 77% 30.21 in 6.2 mi ENE 9.2 mph - N/A   Unknown
3:30 AM 60.8 °F - 51.8 °F 72% 30.21 in 6.2 mi ENE 8.1 mph - N/A   Unknown
4:00 AM 59 °F - 52 °F 71% 30.18 in 6 mi ENE 8.1 mph - -  
4:00 AM 59.0 °F - 51.8 °F 77% 30.18 in 6.2 mi ENE 8.1 mph - N/A   Unknown
4:30 AM 59.0 °F - 51.8 °F 77% 30.18 in 6.2 mi ENE 5.8 mph - N/A   Unknown
5:00 AM 57.2 °F - 53.6 °F 88% 30.18 in - ENE 5.8 mph - N/A   Clear
5:30 AM 57.2 °F - 51.8 °F 82% 30.18 in - NE 5.8 mph - N/A   Clear
6:00 AM 57.2 °F - 51.8 °F 82% 30.18 in - NE 6.9 mph - N/A   Clear
6:30 AM 57.2 °F - 51.8 °F 82% 30.18 in - ENE 8.1 mph - N/A   Clear
7:00 AM 56 °F - 51 °F 77% 30.19 in 6 mi ENE 5.8 mph - -  
7:00 AM 55.4 °F - 50.0 °F 82% 30.18 in - ENE 6.9 mph - N/A   Clear
7:30 AM 57.2 °F - 51.8 °F 82% 30.18 in - ENE 6.9 mph - N/A   Clear
8:00 AM 57.2 °F - 51.8 °F 82% 30.21 in - ENE 5.8 mph - N/A   Clear
8:30 AM 59.0 °F - 51.8 °F 77% 30.18 in - East 8.1 mph - N/A   Clear
9:00 AM 60.8 °F - 51.8 °F 72% 30.18 in - ENE 6.9 mph - N/A   Clear
9:30 AM 60.8 °F - 53.6 °F 77% 30.18 in - East 8.1 mph - N/A   Clear
10:00 AM 64 °F - 54 °F 60% 30.16 in 6 mi ENE 8.1 mph - -  
10:00 AM 62.6 °F - 53.6 °F 72% 30.18 in - East 8.1 mph - N/A   Clear
10:30 AM 64.4 °F - 53.6 °F 68% 30.18 in 6.2 mi East 8.1 mph - N/A   Unknown
11:00 AM 68.0 °F - 55.4 °F 64% 30.18 in - ENE 6.9 mph - N/A   Clear
11:30 AM 69.8 °F - 53.6 °F 56% 30.15 in - ENE 10.4 mph - N/A   Clear
12:00 PM 71.6 °F - 53.6 °F 53% 30.15 in - ENE 8.1 mph - N/A   Clear
12:30 PM 73.4 °F - 53.6 °F 50% 30.15 in - NE 6.9 mph - N/A   Clear
1:00 PM 76 °F - 53 °F 33% 30.06 in 6 mi NE 9.2 mph - -  
1:00 PM 75.2 °F - 53.6 °F 47% 30.12 in - NE 9.2 mph - N/A   Clear
1:30 PM 78.8 °F - 53.6 °F 42% 30.12 in - NNE 9.2 mph - N/A   Clear
2:00 PM 80.6 °F 80.3 °F 53.6 °F 39% 30.09 in - NE 8.1 mph - N/A   Clear
2:30 PM 80.6 °F - 51.8 °F 37% 30.09 in - NNE 8.1 mph - N/A   Clear
3:00 PM 82.4 °F - 51.8 °F 35% 30.09 in 6.2 mi NNE 8.1 mph - N/A   Partly Cloudy
3:30 PM 82.4 °F - 50.0 °F 32% 30.09 in 6.2 mi Variable 5.8 mph - N/A   Partly Cloudy
4:00 PM 83 °F - 51 °F 23% 29.99 in 6 mi NE 8.1 mph - -   Scattered Clouds
4:00 PM 84.2 °F - 50.0 °F 30% 30.06 in 6.2 mi NE 8.1 mph - N/A   Partly Cloudy
4:30 PM 84.2 °F - 50.0 °F 30% 30.06 in 6.2 mi NE 9.2 mph - N/A   Partly Cloudy
5:00 PM 84.2 °F - 46.4 °F 27% 30.06 in 6.2 mi NE 10.4 mph - N/A   Partly Cloudy
5:30 PM 84.2 °F - 44.6 °F 25% 30.06 in 5.6 mi NE 8.1 mph - N/A   Partly Cloudy
6:00 PM 84.2 °F - 44.6 °F 25% 30.06 in 5.6 mi North 6.9 mph - N/A   Partly Cloudy
6:30 PM 84.2 °F - 42.8 °F 23% 30.06 in 5.6 mi NE 10.4 mph - N/A   Partly Cloudy
7:00 PM 83 °F - 40 °F 12% 29.98 in 6 mi NE 9.2 mph - -   Scattered Clouds
7:00 PM 84.2 °F - 42.8 °F 23% 30.06 in 6.2 mi NE 9.2 mph - N/A   Partly Cloudy
7:30 PM 82.4 °F - 39.2 °F 21% 30.06 in 6.2 mi NE 8.1 mph - N/A   Partly Cloudy
8:00 PM 82.4 °F - 35.6 °F 19% 30.06 in - NNE 9.2 mph - N/A   Clear
8:30 PM 78.8 °F - 37.4 °F 23% 30.06 in - NNE 8.1 mph - N/A   Clear
9:00 PM 78.8 °F - 39.2 °F 24% 30.09 in - NE 10.4 mph - N/A   Clear
9:30 PM 75.2 °F - 50.0 °F 41% 30.09 in - NNE 13.8 mph - N/A   Clear
10:00 PM 73 °F - 50 °F 34% 30.05 in 6 mi NNE 10.4 mph - -  
10:00 PM 73.4 °F - 50.0 °F 44% 30.09 in - NNE 10.4 mph - N/A   Clear
10:30 PM 71.6 °F - 50.0 °F 46% 30.12 in - NE 13.8 mph - N/A   Clear
11:00 PM 69.8 °F - 50.0 °F 49% 30.12 in - NE 9.2 mph - N/A   Clear
11:30 PM 68.0 °F - 50.0 °F 52% 30.12 in - NE 11.5 mph - N/A   Clear